Providence, RI

6:02 PM EST on December 14, 2017 (GMT -0500)
Green State

Weather History for KPVD - May, 2014

Change the Weather History Date:

Monday, May 5, 2014

  Actual Average Record
Temperature  
Mean Temperature 57 °F 55 °F  
Max Temperature 65 °F 65 °F 91 °F (1949)
Min Temperature 49 °F 45 °F 33 °F (1907)
Degree Days  
Heating Degree Days 8 10  
Month to date heating degree days 39 53  
Since 1 July heating degree days 5751 5403  
Cooling Degree Days 0 0  
Month to date cooling degree days 0 0  
Year to date cooling degree days 0 2  
Growing Degree Days 6 (Base 50)    
Moisture  
Dew Point 37 °F    
Average Humidity 51    
Maximum Humidity 66    
Minimum Humidity 36    
Precipitation  
Precipitation 0.00 in 0.11 in 2.29 in (2017)
Month to date precipitation 1.28 0.57  
Year to date precipitation 21.83 17.09  
Snow  
Snow 0.00 in 0.00 in T in (1917)
Month to date snowfall 0.0 0.0  
Since 1 July snowfall 43.6 33.8  
Snow Depth 0.00 in    
Sea Level Pressure  
Sea Level Pressure 29.77 in    
Wind  
Wind Speed 11 mph (NW)    
Max Wind Speed 21 mph    
Max Gust Speed 29 mph    
Visibility 10 miles    
Events      
T = Trace of Precipitation, MM = Missing Value Source: NWS Daily Summary

Daily Weather History Graph

Daily Weather History Graph

Search for Another Location

Airport or City:

Trip Planner

Search our weather history database for the weather conditions in past years. The results will help you decide how hot, cold, wet, or windy it might be!

Date:

Astronomy

May. 05, 2014 Rise Set
Actual Time 5:37 AM EDT 7:48 PM EDT
Civil Twilight 5:06 AM EDT 8:19 PM EDT
Nautical Twilight 4:28 AM EDT 8:56 PM EDT
Astronomical Twilight 3:47 AM EDT 9:38 PM EDT
Moon 10:54 AM EDT (5/5) 12:30 AM EDT (5/5)
Length of Visible Light 15h 12m
Length of Day
14h 11m
Waxing Crescent, 36% of the Moon is Illuminated
May 5
Waxing Crescent
May 6
First Quarter
May 14
Full
May 21
Last Quarter
May 28
New

Hourly Weather History & Observations

Time (EDT) Temp. Dew Point Humidity Pressure Visibility Wind Dir Wind Speed Gust Speed Precip Events Conditions
12:51 AM 51.1 °F 36.0 °F 56% 29.66 in 10.0 mi WNW 18.4 mph 26.5 mph 0.00 in   Overcast
1:51 AM 50.0 °F 37.0 °F 61% 29.66 in 10.0 mi WNW 17.3 mph 25.3 mph N/A   Mostly Cloudy
2:51 AM 51.1 °F 37.0 °F 59% 29.67 in 10.0 mi NW 16.1 mph 24.2 mph N/A   Overcast
3:51 AM 50.0 °F 37.0 °F 61% 29.69 in 10.0 mi WNW 10.4 mph 21.9 mph N/A   Overcast
4:51 AM 50.0 °F 37.4 °F 62% 29.71 in 10.0 mi NW 10.4 mph 21.9 mph N/A   Overcast
5:51 AM 50.0 °F 37.9 °F 63% 29.74 in 10.0 mi NW 9.2 mph - N/A   Mostly Cloudy
6:51 AM 48.9 °F 37.9 °F 66% 29.77 in 10.0 mi WNW 8.1 mph - N/A   Mostly Cloudy
7:51 AM 53.6 °F 39.2 °F 58% 29.78 in 10.0 mi WNW 13.8 mph 20.7 mph N/A   Mostly Cloudy
8:51 AM 55.0 °F 39.9 °F 57% 29.78 in 10.0 mi NW 15.0 mph - N/A   Mostly Cloudy
9:51 AM 57.0 °F 39.9 °F 53% 29.78 in 10.0 mi NW 9.2 mph - N/A   Mostly Cloudy
10:51 AM 57.9 °F 39.9 °F 51% 29.78 in 10.0 mi NW 12.7 mph 20.7 mph N/A   Mostly Cloudy
11:51 AM 60.1 °F 39.0 °F 46% 29.79 in 10.0 mi NNW 12.7 mph 19.6 mph N/A   Mostly Cloudy
12:51 PM 61.0 °F 39.0 °F 44% 29.78 in 10.0 mi NW 15.0 mph - N/A   Mostly Cloudy
1:51 PM 63.0 °F 37.9 °F 40% 29.78 in 10.0 mi NW 8.1 mph 19.6 mph N/A   Mostly Cloudy
2:51 PM 63.0 °F 37.9 °F 40% 29.77 in 10.0 mi NNW 15.0 mph 21.9 mph N/A   Mostly Cloudy
3:51 PM 62.1 °F 37.0 °F 39% 29.78 in 10.0 mi NW 11.5 mph 23.0 mph N/A   Mostly Cloudy
4:51 PM 62.1 °F 37.0 °F 39% 29.78 in 10.0 mi NW 8.1 mph - N/A   Mostly Cloudy
5:51 PM 63.0 °F 36.0 °F 37% 29.78 in 10.0 mi NW 16.1 mph 20.7 mph N/A   Mostly Cloudy
6:51 PM 62.1 °F 36.0 °F 38% 29.79 in 10.0 mi NW 12.7 mph - N/A   Scattered Clouds
7:51 PM 60.1 °F 35.1 °F 39% 29.81 in 10.0 mi NNW 8.1 mph - N/A   Scattered Clouds
8:51 PM 57.9 °F 36.0 °F 44% 29.83 in 10.0 mi NNW 6.9 mph - N/A   Scattered Clouds
9:51 PM 55.9 °F 37.0 °F 49% 29.85 in 10.0 mi NNW 6.9 mph - N/A   Scattered Clouds
10:51 PM 54.0 °F 36.0 °F 51% 29.86 in 10.0 mi NNW 4.6 mph - N/A   Scattered Clouds
11:51 PM 53.1 °F 37.0 °F 55% 29.87 in 10.0 mi NW 3.5 mph - N/A   Scattered Clouds